time_stamp(utc),avg(mph),gust(mph),direction(deg),12m_air_temp(f),sonic_u(cm/s),sonic_v(cm/s),sonic_w(cm/s),pressure,2m_air_temp(f),pyranometer(W/m^2)
"2018-02-02 00:02:42+00",8.0,9.0,,39.7,-251,-269,1,1012.76,38.4,0
"2018-02-02 00:07:42+00",8.9,9.9,,39.7,-234,-320,-1,1012.67,38.2,0
"2018-02-02 00:12:42+00",9.4,10.4,,39.7,-242,-343,0,1012.69,38,0
"2018-02-02 00:17:42+00",9.5,10.5,,39.7,-263,-342,-2,1012.68,38,0
"2018-02-02 00:22:42+00",9.2,10.2,,39.5,-234,-338,-3,1012.7,37.9,0
"2018-02-02 00:27:42+00",10.2,11.2,,39.6,-224,-384,-8,1012.52,37.8,0
"2018-02-02 00:32:42+00",9.8,9.8,,39.6,-232,-367,-2,1012.51,37.9,0
"2018-02-02 00:37:42+00",9.9,9.9,,39.4,-228,-370,-3,1012.47,37.8,0
"2018-02-02 00:42:42+00",9.4,10.4,,39.4,-207,-355,-3,1012.34,37.7,0
"2018-02-02 00:47:42+00",9.6,10.6,,39.3,-189,-366,-7,1012.37,37.6,0
"2018-02-02 00:52:42+00",10.1,11.1,,39.4,-236,-377,-3,1012.29,37.7,0
"2018-02-02 00:57:42+00",10.2,11.2,,39.3,-232,-385,-5,1012.18,37.8,0
"2018-02-02 01:02:42+00",9.1,10.1,,39.2,-220,-341,-2,1012.11,37.8,0
"2018-02-02 01:07:42+00",9.0,10.0,,39.1,-220,-339,-3,1011.99,37.7,0
"2018-02-02 01:12:42+00",9.8,9.8,,39.3,-262,-355,-2,1012,37.8,0
"2018-02-02 01:17:42+00",10.6,11.6,,39.7,-308,-370,1,1011.89,38.2,0
"2018-02-02 01:22:42+00",10.3,11.3,,39.8,-276,-379,4,1011.85,38.6,0
"2018-02-02 01:27:42+00",10.2,11.2,,39.8,-243,-382,-5,1011.72,38.8,0
"2018-02-02 01:32:42+00",10.9,12.9,,39.8,-210,-419,-8,1011.67,38.8,0
"2018-02-02 01:37:42+00",11.5,12.5,,40.1,-221,-444,-7,1011.56,39,0
"2018-02-02 01:42:42+00",11.2,12.2,,40.2,-231,-424,-7,1011.49,39.1,0
"2018-02-02 01:47:42+00",10.1,11.1,,40.3,-233,-380,-2,1011.45,39.2,0
"2018-02-02 01:52:42+00",10.2,11.2,,40.4,-209,-388,-6,1011.4,39.3,0
"2018-02-02 01:57:42+00",10.6,12.6,,40.8,-218,-403,-2,1011.32,39.6,0
"2018-02-02 02:02:42+00",7.8,9.8,,40.9,-123,-309,-3,1011.19,39.8,0
"2018-02-02 02:07:42+00",10.7,11.7,,41.3,-185,-425,3,1010.94,40.1,0
"2018-02-02 02:12:42+00",11.5,13.5,,41.6,-209,-457,4,1011.02,40.5,0
"2018-02-02 02:17:42+00",13.5,15.5,,41.9,-221,-536,2,1010.82,41,0
"2018-02-02 02:22:42+00",11.8,14.8,,41.9,-171,-486,8,1010.76,41.1,0
"2018-02-02 02:27:42+00",14.0,16.0,,41.9,-230,-555,-8,1010.62,41.1,0
"2018-02-02 02:32:42+00",14.0,16.0,,41.9,-286,-539,-5,1010.62,41.2,0
"2018-02-02 02:37:42+00",12.7,14.7,,41.6,-264,-485,-6,1010.51,40.9,0
"2018-02-02 02:42:42+00",13.0,14.0,,41.7,-293,-493,2,1010.56,40.9,0
"2018-02-02 02:47:42+00",12.6,14.6,,41.7,-284,-477,1,1010.55,40.9,0
"2018-02-02 02:52:42+00",12.9,14.9,,41.7,-294,-488,-5,1010.34,40.9,0
"2018-02-02 02:57:42+00",12.7,14.7,,41.8,-264,-484,-9,1010.34,40.9,0
"2018-02-02 03:02:42+00",13.1,15.1,,41.9,-337,-484,6,1010.43,40.9,0
"2018-02-02 03:07:42+00",13.1,15.1,,41.8,-288,-500,-5,1010.35,41,0
"2018-02-02 03:12:42+00",14.3,16.3,,41.7,-311,-546,-3,1010.22,41,0
"2018-02-02 03:17:42+00",16.0,19.0,,41.9,-330,-613,-12,1010.12,41.1,0
"2018-02-02 03:22:42+00",14.3,18.3,,41.9,-330,-538,7,1009.98,41.2,0
"2018-02-02 03:27:42+00",14.9,15.9,,41.9,-290,-577,-11,1009.81,41.2,0
"2018-02-02 03:32:42+00",15.9,17.9,,42.2,-360,-602,0,1009.81,41.4,0
"2018-02-02 03:37:42+00",16.5,18.5,,42.5,-438,-607,3,1009.7,41.6,0
"2018-02-02 03:42:42+00",15.8,16.8,,42.5,-405,-588,-6,1009.66,41.7,0
"2018-02-02 03:47:42+00",16.3,19.3,,42.5,-468,-577,5,1009.55,41.6,0
"2018-02-02 03:52:42+00",13.5,14.5,,42.4,-362,-495,6,1009.39,41.6,0
"2018-02-02 03:57:42+00",13.0,14.0,,42.2,-315,-490,-5,1009.22,41.3,0
"2018-02-02 04:02:42+00",12.8,14.8,,42.5,-330,-474,12,1009.15,41.4,0
"2018-02-02 04:07:42+00",12.9,14.9,,42.8,-391,-443,3,1009.13,41.6,0
"2018-02-02 04:12:42+00",14.2,17.2,,42.8,-470,-403,18,1009.2,41.7,0
"2018-02-02 04:17:42+00",13.4,15.4,,42.4,-450,-368,11,1009.23,41.5,0
"2018-02-02 04:22:42+00",13.5,16.5,,42.3,-425,-441,-2,1009.06,41.2,0
"2018-02-02 04:27:42+00",13.6,15.6,,42.1,-506,-334,9,1009.13,41.2,0
"2018-02-02 04:32:42+00",14.5,17.5,,42.1,-529,-362,21,1008.93,41.1,0
"2018-02-02 04:37:42+00",15.1,18.1,,42.3,-524,-400,23,1008.69,41.2,0
"2018-02-02 04:42:42+00",14.6,17.6,,42.4,-465,-457,17,1008.57,41.3,0
"2018-02-02 04:47:42+00",18.0,21.0,,42.8,-587,-523,21,1008.71,41.6,0
"2018-02-02 04:52:42+00",14.9,17.9,,42.3,-541,-368,27,1008.8,41.3,0
"2018-02-02 04:57:42+00",13.7,14.7,,41.7,-526,-326,14,1008.82,40.8,0
"2018-02-02 05:02:42+00",14.0,16.0,,41.2,-548,-319,16,1008.73,40.3,0
"2018-02-02 05:07:42+00",15.8,17.8,,41.3,-523,-441,6,1008.53,40.2,0
"2018-02-02 05:12:42+00",14.1,17.1,,41.2,-452,-411,9,1008.5,40.3,0
"2018-02-02 05:17:42+00",14.6,16.6,,41.2,-500,-383,6,1008.48,40.2,0
"2018-02-02 05:22:42+00",10.4,12.4,,41,-443,-180,15,1008.52,40.1,0
"2018-02-02 05:27:42+00",11.5,12.5,,40.7,-494,-55,17,1008.61,39.7,0
"2018-02-02 05:32:42+00",12.2,14.2,,40.8,-530,-14,-2,1008.76,39.6,0
"2018-02-02 05:37:42+00",10.7,11.7,,40.7,-464,100,14,1008.83,39.2,0
"2018-02-02 05:42:42+00",7.6,8.6,,40.8,-317,129,19,1008.74,39.2,0
"2018-02-02 05:47:42+00",6.7,7.7,,40.9,-214,195,14,1008.79,39.4,0
"2018-02-02 05:52:42+00",9.0,10.0,,41,-290,273,14,1008.83,39.5,0
"2018-02-02 05:57:42+00",8.7,9.7,,41,-289,250,20,1008.78,39.6,0
"2018-02-02 06:02:42+00",8.3,9.3,,41,-281,235,23,1008.75,39.8,0
"2018-02-02 06:07:42+00",10.5,11.5,,40.9,-360,288,24,1008.82,39.8,0
"2018-02-02 06:12:42+00",11.2,12.2,,40.7,-396,304,36,1008.94,39.7,0
"2018-02-02 06:17:42+00",13.9,14.9,,40.5,-469,398,40,1009.03,39.6,0
"2018-02-02 06:22:42+00",15.7,16.7,,40.4,-524,452,43,1009.1,39.5,0
"2018-02-02 06:27:42+00",15.5,17.5,,40.3,-477,489,50,1008.8,39.5,0
"2018-02-02 06:32:42+00",17.2,18.2,,40.1,-492,571,66,1008.97,39.4,0
"2018-02-02 06:37:42+00",18.8,21.8,,39.8,-592,571,65,1009.32,39.2,0
"2018-02-02 06:42:42+00",21.5,23.5,,39.6,-705,634,61,1009.49,39,0
"2018-02-02 06:47:42+00",20.7,24.7,,39.4,-665,630,64,1009.41,38.8,0
"2018-02-02 06:52:42+00",22.7,24.7,,39.2,-660,710,75,1009.17,38.7,0
"2018-02-02 06:57:42+00",21.2,23.2,,38.8,-617,685,72,1009.35,38.4,0
"2018-02-02 07:02:42+00",20.8,24.8,,38.6,-627,655,58,1009.57,38.2,0
"2018-02-02 07:07:42+00",25.3,28.3,,38.5,-758,802,72,1009.6,38.1,0
"2018-02-02 07:12:42+00",21.7,26.7,,38.2,-637,671,83,1009.74,37.9,0
"2018-02-02 07:17:42+00",21.1,24.1,,38,-652,647,72,1009.82,37.7,0
"2018-02-02 07:22:42+00",18.7,20.7,,37.8,-599,556,80,1010,37.5,0
"2018-02-02 07:27:42+00",20.8,22.8,,37.8,-649,642,70,1010.12,37.4,0
"2018-02-02 07:32:42+00",16.2,18.2,,37.6,-515,499,72,1010.09,37.3,0
"2018-02-02 07:37:42+00",18.5,20.5,,37.4,-550,602,62,1009.89,37.1,0
"2018-02-02 07:42:42+00",18.0,22.0,,37.5,-573,546,51,1010.12,37.1,0
"2018-02-02 07:47:42+00",17.0,19.0,,37.4,-523,511,59,1010,37.1,0
"2018-02-02 07:52:42+00",15.6,16.6,,37.3,-482,476,48,1010.04,36.9,0
"2018-02-02 07:57:42+00",17.1,19.1,,37.3,-543,503,60,1010.33,36.9,0
"2018-02-02 08:02:42+00",16.7,18.7,,37.2,-548,487,52,1010.02,36.8,0
"2018-02-02 08:07:42+00",14.6,16.6,,37.1,-477,421,64,1010.19,36.7,0
"2018-02-02 08:12:42+00",16.9,19.9,,37.1,-591,453,42,1010.55,36.7,0
"2018-02-02 08:17:42+00",16.3,19.3,,37.1,-574,434,45,1010.55,36.7,0
"2018-02-02 08:22:42+00",15.9,18.9,,37,-576,405,45,1010.44,36.7,0
"2018-02-02 08:27:42+00",17.5,20.5,,36.9,-613,469,65,1010.66,36.6,0
"2018-02-02 08:32:42+00",18.6,20.6,,36.8,-646,494,33,1010.48,36.5,0
"2018-02-02 08:37:42+00",14.5,16.5,,36.7,-503,367,54,1010.61,36.4,0
"2018-02-02 08:42:42+00",15.7,18.7,,36.6,-598,352,59,1010.84,36.2,0
"2018-02-02 08:47:42+00",15.8,17.8,,36.2,-596,357,49,1011,36,0
"2018-02-02 08:52:42+00",19.4,24.4,,36.1,-722,466,70,1011.09,35.8,0
"2018-02-02 08:57:42+00",17.2,21.2,,36,-599,486,56,1010.78,35.7,0
"2018-02-02 09:02:42+00",15.2,17.2,,35.8,-530,404,59,1010.72,35.6,0
"2018-02-02 09:07:42+00",16.9,18.9,,35.8,-655,370,58,1011.07,35.5,0
"2018-02-02 09:12:42+00",15.1,18.1,,35.5,-579,335,51,1011.03,35.3,0
"2018-02-02 09:17:42+00",13.9,15.9,,35.4,-549,294,42,1010.79,35.1,0
"2018-02-02 09:22:42+00",18.0,20.0,,35.3,-709,341,54,1011.24,35,0
"2018-02-02 09:27:42+00",16.9,20.9,,35.2,-646,354,63,1010.97,34.9,0
"2018-02-02 09:32:42+00",17.7,19.7,,35.2,-734,298,39,1011.51,34.8,0
"2018-02-02 09:37:42+00",16.7,18.7,,35,-681,319,33,1011.39,34.8,0
"2018-02-02 09:42:42+00",16.7,18.7,,34.9,-639,350,53,1011.24,34.6,0
"2018-02-02 09:47:42+00",16.0,18.0,,34.7,-590,400,46,1011.12,34.6,0
"2018-02-02 09:52:42+00",15.7,16.7,,34.7,-576,368,35,1011.44,34.4,0
"2018-02-02 09:57:42+00",14.7,16.7,,34.7,-552,357,42,1011.44,34.4,0
"2018-02-02 10:02:42+00",15.6,18.6,,34.6,-566,385,43,1011.28,34.4,0
"2018-02-02 10:07:42+00",16.2,18.2,,34.5,-604,389,41,1011.34,34.3,0
"2018-02-02 10:12:42+00",13.4,15.4,,34.6,-525,284,32,1011.92,34.3,0
"2018-02-02 10:17:42+00",14.5,16.5,,34.6,-568,283,42,1012.14,34.3,0
"2018-02-02 10:22:42+00",14.3,16.3,,34.7,-586,251,61,1012.31,34.4,0
"2018-02-02 10:27:42+00",16.2,18.2,,34.9,-662,277,43,1012.36,34.5,0
"2018-02-02 10:32:42+00",14.7,16.7,,35,-593,284,65,1012.17,34.6,0
"2018-02-02 10:37:42+00",14.5,16.5,,34.9,-573,305,47,1012.01,34.6,0
"2018-02-02 10:42:42+00",12.8,14.8,,34.9,-507,245,25,1012.05,34.6,0
"2018-02-02 10:47:42+00",12.0,15.0,,35,-472,246,31,1011.86,34.6,0
"2018-02-02 10:52:42+00",11.2,13.2,,35.1,-548,216,89,1012.02,34.7,0
"2018-02-02 10:57:42+00",11.7,13.7,,35.1,-606,239,96,1012.14,34.7,0
"2018-02-02 11:02:42+00",10.5,12.5,,35.2,-753,181,183,1012.41,34.8,0
"2018-02-02 11:07:42+00",9.3,10.3,,35.2,-3144,182,1352,1011.81,34.8,0
"2018-02-02 11:12:42+00",9.7,10.7,,35.2,-569,112,110,1012.09,34.8,0
"2018-02-02 11:17:42+00",8.6,10.6,,35.4,-1445,44,527,1012.25,34.9,0
"2018-02-02 11:22:42+00",10.5,12.5,,35.4,-465,73,30,1012.36,34.9,0
"2018-02-02 11:27:42+00",11.6,12.6,,35.5,-521,22,33,1012.57,35,0
"2018-02-02 11:32:42+00",11.9,13.9,,35.5,-527,65,34,1012.47,35,0
"2018-02-02 11:37:42+00",10.9,11.9,,35.4,-452,143,26,1011.82,35,0
"2018-02-02 11:42:42+00",12.6,14.6,,35.4,-551,74,23,1012.64,35,0
"2018-02-02 11:47:42+00",12.5,14.5,,35.4,-549,46,19,1013.2,35,0
"2018-02-02 11:52:42+00",10.9,11.9,,35.5,-465,140,31,1012.94,35,0
"2018-02-02 11:57:42+00",9.8,10.8,,35.6,-424,105,33,1012.75,35,0
"2018-02-02 12:02:42+00",11.5,13.5,,35.6,-502,117,41,1012.93,35.1,0
"2018-02-02 12:07:42+00",14.2,15.2,,35.9,-607,225,54,1013.06,35.1,0
"2018-02-02 12:12:42+00",16.0,19.0,,36,-638,310,47,1013.35,35.2,0
"2018-02-02 12:17:42+00",14.0,17.0,,35.9,-545,309,47,1013.42,35.3,0
"2018-02-02 12:22:42+00",16.5,19.5,,35.8,-507,503,52,1013.57,35.4,0
"2018-02-02 12:27:42+00",19.6,21.6,,35.7,-452,710,69,1013.63,35.3,0
"2018-02-02 12:32:42+00",22.7,25.7,,35.1,-369,986,7,1013.66,35.1,0
"2018-02-02 12:37:42+00",18.0,21.0,,33.7,-94,752,45,1013.58,34,0
"2018-02-02 12:42:42+00",21.5,23.5,,33.5,17,497,272,1014.02,33.5,0
"2018-02-02 13:07:42+00",21.7,25.7,,33.3,20000,0,-1,1014.49,32.9,-0.1
"2018-02-02 13:12:42+00",21.4,24.4,,33.2,-460,802,69,1014.82,32.9,0
"2018-02-02 13:17:42+00",20.4,24.4,,33.1,20000,0,-1,1014.88,32.8,-0.1
"2018-02-02 13:22:42+00",17.9,20.9,,33,-1106,1910,-676,1015.07,32.8,0
"2018-02-02 13:27:42+00",23.6,27.6,,32.9,-2061,3349,-1317,1015.33,32.7,0
"2018-02-02 13:32:42+00",17.6,20.6,,32.7,308,-413,671,1015.36,32.6,0
"2018-02-02 13:57:42+00",20.0,24.0,,32.5,-478,727,64,1015.8,32.5,28.4
"2018-02-02 14:02:42+00",23.3,27.3,,32.4,-630,785,52,1015.99,32.4,18.5
"2018-02-02 14:07:42+00",22.7,26.7,,32.3,-618,782,72,1016.08,32.4,27.2
"2018-02-02 14:12:42+00",20.4,22.4,,32.3,-590,665,78,1016.31,32.3,23.8
"2018-02-02 14:17:42+00",20.9,23.9,,32.1,-585,705,80,1016.25,32.2,25.5
"2018-02-02 14:22:42+00",21.4,23.4,,32,-614,727,84,1016.29,32.2,112.4
"2018-02-02 14:27:42+00",24.9,26.9,,31.9,-735,812,70,1016.22,32.4,84.1
"2018-02-02 14:32:42+00",23.8,27.8,,31.8,-595,846,65,1016.34,32.2,50.8
"2018-02-02 14:37:42+00",20.7,23.7,,31.7,-576,700,77,1016.51,32,63.4
"2018-02-02 14:42:42+00",21.0,23.0,,31.4,-282,873,44,1016.59,32,39.4
"2018-02-02 14:47:42+00",22.1,24.1,,30.9,-207,937,30,1016.7,31.8,39.4
"2018-02-02 14:52:42+00",23.5,24.5,,30.3,-255,997,41,1016.67,31.2,25.5
"2018-02-02 14:57:42+00",20.1,23.1,,30.3,-164,860,32,1016.84,31,45.2
"2018-02-02 15:02:42+00",17.2,20.2,,30.4,-342,656,22,1016.85,31,28.9
"2018-02-02 15:07:42+00",18.7,20.7,,30.7,-207,790,34,1016.85,31.3,153.3
"2018-02-02 15:12:42+00",20.6,23.6,,30.6,-210,872,39,1016.84,31.6,80.5
"2018-02-02 15:17:42+00",17.4,19.4,,30.6,-232,722,45,1017.01,31.6,88.9
"2018-02-02 15:22:42+00",19.4,21.4,,30.6,-337,774,44,1017.01,31.5,120.3
"2018-02-02 15:27:42+00",17.0,19.0,,30.6,-380,635,52,1016.96,31.3,60.5
"2018-02-02 15:32:42+00",17.9,21.9,,31.1,-427,653,31,1017.03,31.6,150.7
"2018-02-02 15:37:42+00",22.4,25.4,,30.9,-460,872,77,1017,31.5,56.1
"2018-02-02 15:42:42+00",22.7,24.7,,30.8,-796,636,76,1017.07,31.3,50.1
"2018-02-02 15:47:42+00",24.5,29.5,,30.9,-848,684,73,1017.28,31.3,184.9
"2018-02-02 15:52:42+00",27.1,30.1,,30.7,-942,813,92,1017.19,31.2,86
"2018-02-02 15:57:42+00",22.9,25.9,,30.5,-796,651,59,1017.25,31.2,83.5
"2018-02-02 16:02:42+00",27.4,30.4,,30.3,-714,969,57,1017.28,31,34.4
"2018-02-02 16:07:42+00",23.1,29.1,,29.9,-408,925,86,1017.44,30.6,41.5
"2018-02-02 16:12:42+00",23.8,27.8,,28.9,-499,925,66,1017.62,29.8,54.8
"2018-02-02 16:17:42+00",28.4,30.4,,28.4,-557,1114,53,1017.59,29.5,259.8
"2018-02-02 16:22:42+00",23.8,26.8,,28,-376,971,54,1017.77,29.2,105.8
"2018-02-02 16:27:42+00",22.3,25.3,,28.2,-499,852,53,1017.82,29.3,300.7
"2018-02-02 16:32:42+00",20.1,23.1,,28.3,-479,747,56,1017.74,29.7,300.4
"2018-02-02 16:37:42+00",21.5,24.5,,28.1,-478,819,54,1017.73,29.5,163.2
"2018-02-02 16:42:42+00",27.0,30.0,,28.1,-883,815,67,1017.54,29.3,138.4
"2018-02-02 16:47:42+00",25.1,29.1,,28.1,-781,788,49,1017.57,29.1,107.3
"2018-02-02 16:52:42+00",25.0,28.0,,28.4,-763,801,83,1017.56,29.3,110.9
"2018-02-02 16:57:42+00",25.7,28.7,,28.9,-806,819,71,1017.46,30.2,371.1
"2018-02-02 17:02:42+00",23.3,26.3,,29,-788,694,71,1017.4,30.4,232.9
"2018-02-02 17:07:42+00",22.1,26.1,,29.5,-689,700,78,1017.26,30.6,422.1
"2018-02-02 17:12:42+00",26.0,31.0,,29.8,-792,847,90,1017.17,31.3,200.4
"2018-02-02 17:17:42+00",25.0,28.0,,29.6,-873,695,82,1017.12,30.6,118.8
"2018-02-02 17:22:42+00",28.0,31.0,,29.5,-937,837,92,1017.18,30.3,58.9
"2018-02-02 17:27:42+00",27.6,30.6,,28,-706,998,95,1017.5,29.1,33.8
"2018-02-02 17:32:42+00",29.6,33.6,,27.5,-776,1045,59,1017.59,28.4,14.1
"2018-02-02 17:37:42+00",27.3,31.3,,27.6,-738,951,70,1017.6,28.2,15.4
"2018-02-02 17:42:42+00",23.4,28.4,,27.7,-771,725,82,1017.76,28.2,37.6
"2018-02-02 17:47:42+00",23.5,27.5,,27.9,-745,743,68,1017.73,28.5,67.9
"2018-02-02 17:52:42+00",25.2,27.2,,27.6,-768,820,60,1017.93,28.4,53.4
"2018-02-02 17:57:42+00",25.2,27.2,,27.5,-597,956,61,1017.85,28.4,85
"2018-02-02 18:02:42+00",20.6,23.6,,27.3,-437,790,47,1017.92,28.2,67.8
"2018-02-02 18:07:42+00",20.1,24.1,,27.5,-610,651,75,1017.94,28.2,72
"2018-02-02 18:12:42+00",27.5,31.5,,27.8,-920,810,81,1017.89,28.5,65.2
"2018-02-02 18:17:42+00",29.5,31.5,,28,-967,897,86,1017.8,28.6,67.5
"2018-02-02 18:22:42+00",28.9,33.9,,27.7,-890,940,82,1017.82,28.5,67.6
"2018-02-02 18:27:42+00",27.3,31.3,,27.6,-696,990,92,1017.92,28.4,66
"2018-02-02 18:32:42+00",34.4,37.4,,27.2,-1130,1056,73,1017.91,28.1,74.3
"2018-02-02 18:37:42+00",32.7,35.7,,27,-1016,1043,72,1018.25,27.8,44.2
"2018-02-02 18:42:42+00",30.1,35.1,,27.1,-1094,791,76,1018.32,27.7,65.4
"2018-02-02 18:47:42+00",29.5,33.5,,27,-1081,736,78,1018.49,27.7,75.1
"2018-02-02 18:52:42+00",26.6,29.6,,27,-762,912,87,1018.57,27.7,115.2
"2018-02-02 18:57:42+00",23.5,29.5,,26.8,-782,698,71,1018.48,27.7,90.9
"2018-02-02 19:02:42+00",26.1,28.1,,27,-770,870,88,1018.67,27.7,60.1
"2018-02-02 19:07:42+00",24.0,27.0,,26.5,-678,824,59,1018.7,27.3,48
"2018-02-02 19:12:42+00",24.3,28.3,,26.7,-687,835,81,1018.79,27.3,74.6
"2018-02-02 19:17:42+00",20.7,23.7,,26.7,-531,749,47,1018.88,27.4,70.7
"2018-02-02 19:22:42+00",28.2,31.2,,26.5,-858,914,70,1018.78,27.3,65
"2018-02-02 19:27:42+00",29.2,35.2,,26,-754,1051,79,1018.96,26.8,58.7
"2018-02-02 19:32:42+00",30.4,35.4,,25.8,-651,1182,64,1019,26.4,51.1
"2018-02-02 19:37:42+00",29.8,33.8,,26,-905,982,110,1019.04,26.6,60.8
"2018-02-02 19:42:42+00",29.4,32.4,,26.1,-896,959,78,1019.22,26.7,65.8
"2018-02-02 19:47:42+00",24.5,27.5,,25.8,-716,822,73,1019.33,26.5,70.8
"2018-02-02 19:52:42+00",26.5,30.5,,25.7,-911,755,87,1019.35,26.4,76.8
"2018-02-02 19:57:42+00",27.9,30.9,,25.4,-618,1075,57,1019.6,26.5,156.6
"2018-02-02 20:02:42+00",31.9,35.9,,25.2,-861,1126,64,1019.54,25.9,66.2
"2018-02-02 20:07:42+00",31.6,35.6,,25.3,-1058,929,74,1019.53,25.8,31.7
"2018-02-02 20:12:42+00",29.6,34.6,,25.4,-735,1101,76,1019.8,25.8,66.2
"2018-02-02 20:17:42+00",24.7,27.7,,25.7,-875,707,90,1019.84,26.1,20.5
"2018-02-02 20:22:42+00",32.3,34.3,,25.6,-1154,889,84,1019.9,26.1,18.4
"2018-02-02 20:27:42+00",31.9,35.9,,25.3,-928,1073,72,1020.04,25.7,19.9
"2018-02-02 20:32:42+00",31.2,37.2,,25.5,-1011,961,98,1020.2,25.8,50.5
"2018-02-02 20:37:42+00",29.8,34.8,,25.7,-952,932,79,1020.32,26.2,161.7
"2018-02-02 20:42:42+00",27.6,30.6,,25.5,-929,810,58,1020.37,26.3,140.1
"2018-02-02 20:47:42+00",26.6,30.6,,25.8,-848,830,80,1020.6,26.3,111.5
"2018-02-02 20:52:42+00",25.0,31.0,,25.7,-902,690,83,1020.64,26.2,51.2
"2018-02-02 20:57:42+00",25.3,29.3,,25.9,-945,624,70,1020.7,26.3,21.1
"2018-02-02 21:02:42+00",22.1,27.1,,25.8,-693,713,95,1020.93,26.1,15.6
"2018-02-02 21:07:42+00",27.1,30.1,,25.5,-627,1031,60,1021.05,25.8,23.6
"2018-02-02 21:12:42+00",30.8,34.8,,25.8,-1042,903,79,1020.87,26.1,8
"2018-02-02 21:17:42+00",24.8,33.8,,26,-697,861,106,1021.09,26.2,73.4
"2018-02-02 21:22:42+00",32.8,34.8,,25.5,-829,1199,80,1021.2,26,61.6
"2018-02-02 21:27:42+00",29.0,33.0,,25.6,-877,959,84,1021.13,25.8,0
"2018-02-02 21:32:42+00",28.2,33.2,,25.5,-776,985,80,1021.31,25.6,0.2
"2018-02-02 21:37:42+00",26.0,30.0,,25.4,-757,879,81,1021.48,25.5,19.8
"2018-02-02 21:42:42+00",27.3,30.3,,25.4,-827,894,77,1021.64,25.6,0.5
"2018-02-02 21:47:42+00",30.6,34.6,,25.4,-1120,798,103,1021.59,25.5,0
"2018-02-02 21:52:42+00",26.1,31.1,,25.3,-829,815,76,1021.83,25.4,0
"2018-02-02 21:57:42+00",27.7,31.7,,25.1,-952,789,99,1021.9,25.3,0
"2018-02-02 22:02:42+00",23.2,28.2,,25.2,-814,644,72,1022.09,25.1,0
"2018-02-02 22:07:42+00",24.5,27.5,,25.1,-801,760,71,1022.16,25,0
"2018-02-02 22:12:42+00",24.4,30.4,,25.3,-803,728,67,1022.2,25.1,0
"2018-02-02 22:17:42+00",25.1,28.1,,25,-744,838,102,1022.39,24.9,0
"2018-02-02 22:22:42+00",30.2,35.2,,24.9,-875,1031,88,1022.47,24.8,0
"2018-02-02 22:27:42+00",32.9,34.9,,24.8,-917,1135,88,1022.55,24.7,0
"2018-02-02 22:32:42+00",27.7,31.7,,24.7,-781,961,70,1022.84,24.6,0
"2018-02-02 22:37:42+00",29.9,31.9,,24.8,-979,914,90,1022.94,24.6,0
"2018-02-02 22:42:42+00",25.8,29.8,,24.7,-821,806,78,1023.16,24.5,0
"2018-02-02 22:47:42+00",26.5,29.5,,24.7,-888,758,68,1023.37,24.5,0
"2018-02-02 22:52:42+00",26.7,29.7,,24.4,-831,856,70,1023.44,24.3,0
"2018-02-02 22:57:42+00",26.6,30.6,,24.6,-839,838,65,1023.58,24.4,0
"2018-02-02 23:02:42+00",26.8,28.8,,24.6,-912,780,67,1023.75,24.4,0
"2018-02-02 23:07:42+00",24.5,29.5,,24.5,-778,767,53,1023.82,24.3,0
"2018-02-02 23:12:42+00",22.5,26.5,,24.5,-742,692,84,1024.04,24.3,0
"2018-02-02 23:17:42+00",20.0,31.0,,24.5,-687,571,83,1024.14,24.3,0
"2018-02-02 23:22:42+00",20.5,24.5,,24.3,-753,535,65,1024.34,24.1,0
"2018-02-02 23:27:42+00",17.9,20.9,,24.3,-658,458,70,1024.52,24.1,0
"2018-02-02 23:32:42+00",20.1,23.1,,24.2,-663,605,59,1024.58,24,0
"2018-02-02 23:37:42+00",23.2,28.2,,24.3,-700,773,68,1024.62,24.1,0
"2018-02-02 23:42:42+00",22.1,27.1,,24.3,-639,744,87,1024.62,24.1,0
"2018-02-02 23:47:42+00",28.4,34.4,,24.1,-744,1025,77,1024.7,23.9,0
"2018-02-02 23:52:42+00",27.6,32.6,,24.1,-891,851,42,1024.84,23.9,0
"2018-02-02 23:57:42+00",22.8,26.8,,24.3,-716,721,78,1025.05,24,0
